User: anonymous   Login
Location: Caltech
(34.1382°N, 118.1253°W)
Time: 08:07:28
(UTC-08:00)
Language:

Cosmos 1606 - Orbit

View from above orbital plane
View from above orbital plane
View from above satellite
View from above satellite

Ground track
Ground track

The orbit data is extracted from the following two-line orbital elements,

1 15369U 84111A   14328.12471201  .00006102  00000-0  35818-3 0  6809
2 15369 082.5298 321.3633 0018133 254.6443 105.2784 15.11421670638805
Epoch (UTC): 24 November 2014 02:59:35
Eccentricity: 0.0018133
inclination: 82.5298°
perigee height: 519 km
apogee height: 544 km
right ascension of ascending node: 321.3633°
argument of perigee: 254.6443°
revolutions per day: 15.11421670
mean anomaly at epoch: 105.2784°
orbit number at epoch: 63880

The dashed part of the orbit path shows where the satellite is in the earth's shadow,  

DLR